Flag for Canada Weather past 2 weeks in Prince George, British Columbia, Canada

68 °F

Scattered clouds.

Feels Like: 68 °F
Forecast: 48 / 61 °F
Wind: 21 mph from South

Location: Prince George

Current Time: Oct 9, 2015 at 5:21:02 PM

Latest Report: Oct 9, 2015 at 4:00 PM

Visibility: 9 mi

Pressure: 29.49 "Hg (27.59 "Hg at 573m altitude)

Humidity: 43%

Dew point: 45 °F

Location of Prince GeorgeLocation

Historic Weather in Prince George — Graph


Prince George temperature yesterday

Maximum temperature yesterday: 59 °F (at 11:00 AM)
Minimum temperature yesterday: 46 °F (at 3:00 AM)
Average temperature yesterday: 52 °F

Past Weeks' High & Low Weather Summary

High72 °F (Sep 30, 4:00 PM)100% (Sep 25, 5:00 AM)30.50 "Hg (Sep 25, 5:00 AM)
Low21 °F (Oct 4, 8:03 AM)33% (Oct 4, 5:00 PM)29.49 "Hg (Oct 9, 4:00 PM)
Average48 °F76%30.06 "Hg
* Reported Sep 24 4:00 PM — Oct 9 4:00 PM, Prince George, Weather by CustomWeather, © 2015

Note: Actual official high and low records may vary slightly from our data, if they occured in-between our weather recording intervals... More about our weather records


Prince George weather history for previous 24 hours

Time TempWeatherWind HumidityBarometerVisibility
4:00 PM
Fri, Oct 9
68 °FScattered clouds.21 mph43%29.49 "Hg9 mi
3:00 PM66 °FSunny.26 mph43%29.51 "Hg9 mi
2:00 PM64 °FPartly sunny.28 mph46%29.54 "Hg9 mi
1:00 PM63 °FOvercast.22 mph52%29.54 "Hg9 mi
12:00 PM61 °FOvercast.23 mph55%29.53 "Hg9 mi
11:00 AM61 °FOvercast.18 mph59%29.55 "Hg9 mi
10:00 AM59 °FOvercast.17 mph63%29.54 "Hg9 mi
9:58 AM59 °FOvercast.17 mph63%29.53 "Hg9 mi
9:00 AM52 °FMore clouds than sun.6 mph88%29.57 "Hg9 mi
8:00 AM50 °FLight rain. Overcast.6 mph94%29.62 "Hg9 mi
7:00 AM52 °FOvercast.6 mph88%29.66 "Hg9 mi
6:53 AM50 °FOvercast.7 mph94%29.67 "Hg9 mi
6:00 AM46 °FOvercast.3 mph100%29.72 "Hg9 mi
5:55 AM46 °FFog.2 mph100%29.72 "Hg6 mi
5:00 AM46 °FMostly cloudy.2 mph100%29.75 "Hg9 mi
4:01 AM45 °FFog.No wind100%29.80 "Hg6 mi
3:03 AM45 °FFog.2 mph100%29.83 "Hg2 mi
2:00 AM45 °FFog.No wind100%29.87 "Hg1 mi
1:53 AM45 °FFog.2 mph100%29.87 "Hg2 mi
1:03 AM45 °FFog.No wind100%29.90 "Hg5 mi
12:00 AM46 °FFog.3 mph100%29.92 "Hg1 mi
11:58 PM
Thu, Oct 8
46 °FFog.2 mph93%29.92 "Hg1 mi
11:00 PM52 °FOvercast.6 mph94%29.92 "Hg9 mi
10:00 PM50 °FPassing clouds.No wind100%29.94 "Hg8 mi
9:00 PM52 °FOvercast.2 mph94%29.96 "Hg9 mi
8:00 PM52 °FOvercast.3 mph100%29.97 "Hg9 mi
7:00 PM54 °FLight rain. Overcast.8 mph94%30.00 "Hg9 mi
6:00 PM54 °FLight rain. Overcast.12 mph94%30.01 "Hg9 mi
5:00 PM54 °FLight rain. Mostly cloudy.12 mph94%30.02 "Hg9 mi
Weather by CustomWeather, © 2015

See weather overviewHow to use our weather pages